Location: *
(46.1200°N, 11.2700°E)
Time: 21:14:11
(UTC+00:00)

Cosmos 1943 Rocket - Pass Details

Date: 02 March 2021
Orbit: 811 x 844 km, 71.0° (Epoch: 17 April)

Event Time Altitude Azimuth Distance (km) Brightness Sun altitude
Rises 19:19:54 0° 342° (NNW) 3,414 5.8 -24.3°
Reaches altitude 10° 19:24:49 10° 19° (NNE) 2,474 4.6 -25.1°
Enters shadow 19:25:51 11° 30° (NNE) 2,423 4.4 -25.3°
